sat.trackr.live / text

‹ back to catalog

STARLINK-34374

NORAD 64308 · 2025-123T

PAYLOAD ACTIVE UNKNOWN

§ Identity

Operator
Country
US
Launch date
2025-06-08
Launch site
AFWTR
Launch vehicle
Mass (kg)
RCS (m²)

Purposes: comms

External: N2YO · Heavens-Above · Gunter

§ Orbital elements

Epoch: 2026-09-20T14:22:13.275264Z

Period
94.14 min
Inclination
70.0005°
Eccentricity
0.0003188
Mean motion
15.29594417 rev/d
Perigee alt
474.8 km
Apogee alt
479.2 km
Semi-major
6,855.2 km
B*
5.4619e-4
RAAN
60.6438°
Arg perigee
266.6950°
Mean anomaly
93.3860°
Rev number
7,087

§ Raw data

STARLINK-343741 64308U 25123T   26263.59876476  .00015613  00000+0  54619-3 0  99982 64308  70.0005  60.6438 0003188 266.6950  93.3860 15.29594417 70874

JSON: /api/v1/satellites/64308 · /tle

For live sub-satellite position, see the globe view (requires WebGL).

§ Visibility from observer

Set your observer location to see the next 7 days of passes ≥ 10°. The values pass through the URL so the page stays shareable.

No JS? Fill the form by hand. The geolocation button needs JavaScript.